Skip Page Navigation
NASA JPL Caltech
NASA Logo - Jet Propulsion Laboratory + View the NASA Portal
+ Center for Near-Earth Object Studies
JPL Home Earth Solar System Stars & Galaxies Technology
JPL Solar System Dynamics
BODIES ORBITS EPHEMERIDES TOOLS PHYSICAL DATA DISCOVERY FAQ SITE MAP
IMPORTANT: The SSD Announcement email list is now available. Major changes are coming in the near future, including possible hostname and/or URL changes. To be notified of such changes, subscribe to this email list.

Please visit this page for more details.


JPL Small-Body Database Browser
Search: [ help ]  
300347 (2007 RV48)
Classification: Main-belt Asteroid          SPK-ID: 2300347
Ephemeris | Orbit Diagram | Orbital Elements | Mission Design | Physical Parameters | Discovery Circumstances | Close-Approach Data ]

[ show orbit diagram ]
Orbital Elements at Epoch 2458600.5 (2019-Apr-27.0) TDB
Reference: JPL 8 (heliocentric ecliptic J2000)
 Element Value Uncertainty (1-sigma)   Units 
e .05993997699159251 8.0659e-08  
a 2.636760321043825 3.3432e-08 au
q 2.478712968068114 2.1914e-07 au
i 1.902797661154873 8.8848e-06 deg
node 191.3535480109672 0.00020277 deg
peri 177.7294824846089 0.00021369 deg
M 257.1285922792918 7.2225e-05 deg
tp 2459047.385837012122
(2020-Jul-16.88583701)
0.00031905 TDB
period 1563.883540518312
4.28
2.9743e-05
8.143e-08
d
yr
n .2301961691346188 4.3781e-09 deg/d
Q 2.794807674019535 3.5436e-08 au
  Orbit Determination Parameters
   # obs. used (total)      113  
   data-arc span      6228 days (17.05 yr)  
   first obs. used      2001-03-25  
   last obs. used      2018-04-13  
   planetary ephem.      DE431  
   SB-pert. ephem.      SB431-N16  
   condition code      0  
   norm. resid. RMS      .62342  
   source      ORB  
   producer      Otto Matic  
   solution date      2019-Jul-14 10:04:10  

Additional Information
 Earth MOID = 1.47661 au 
 Jupiter MOID = 2.47695 au 
 T_jup = 3.394 
[ show covariance matrix ]

Ephemeris | Orbit Diagram | Orbital Elements | Mission Design | Physical Parameters | Discovery Circumstances | Close-Approach Data ]

Physical Parameter Table
Parameter Symbol Value Units Sigma Reference Notes
absolute magnitude H 17.3   n/a MPO418581  

300347 (2007 RV48)          Discovered 2007-Sep-09 by Mt. Lemmon Survey at Mount Lemmon
Reference: 20111012/Numbers.arcLast Updated: 2011-10-13

[ show close-approach data ]
Ephemeris | Orbit Diagram | Orbital Elements | Mission Design | Physical Parameters | Discovery Circumstances | Close-Approach Data ]
ABOUT SSD CREDITS/AWARDS PRIVACY/COPYRIGHT GLOSSARY LINKS
FirstGov
(server date/time)  
NASA Home Page
Site Manager:   Ryan S. Park
Webmaster  Alan B. Chamberlin